GFSMA_prec_pwat_057.txt.gz
Precipitable_Water
1.73 2.01 1.88 1.91 1.91 1.78 1.77 1.53 1.43 1.41 1.63 1.71 1.77 1.71 1.77 1.70 1.58 1.58 1.54 1.42 1.49 1.47 1.50 1.31 1.30 1.30 1.39 1.40 1.40 1.40 1.39 1.37 1.36 1.35 1.33 1.39 1.38 1.39 1.42 1.46 1.48 1.46 1.45
1.92 1.84 1.84 1.86 1.75 1.64 1.60 1.50 1.61 1.81 1.47 1.64 1.72 1.74 1.64 1.63 1.61 1.65 1.70 1.67 1.62 1.55 1.49 1.43 1.30 1.33 1.45 1.41 1.36 1.41 1.40 1.35 1.35 1.31 1.30 1.31 1.38 1.37 1.40 1.40 1.42 1.44 1.44
1.96 1.85 1.74 1.93 1.73 1.63 1.53 1.47 1.47 1.49 1.48 1.61 1.58 1.63 1.67 1.66 1.73 1.70 1.68 1.63 1.68 1.68 1.59 1.49 1.41 1.40 1.35 1.34 1.34 1.31 1.33 1.32 1.30 1.31 1.30 1.31 1.33 1.41 1.45 1.44 1.44 1.46 1.38
1.94 1.94 1.72 1.67 1.59 1.62 1.47 1.38 1.38 1.42 1.41 1.45 1.47 1.54 1.57 1.61 1.69 1.66 1.69 1.60 1.57 1.57 1.59 1.52 1.48 1.44 1.44 1.44 1.44 1.37 1.33 1.32 1.32 1.34 1.32 1.32 1.40 1.46 1.49 1.45 1.43 1.35 1.34
1.92 1.97 1.76 1.87 1.68 1.68 1.44 1.34 1.32 1.40 1.33 1.32 1.29 1.35 1.44 1.48 1.48 1.51 1.49 1.50 1.42 1.43 1.41 1.47 1.48 1.46 1.43 1.37 1.31 1.27 1.25 1.25 1.32 1.39 1.37 1.37 1.40 1.45 1.46 1.46 1.45 1.40 1.38
2.00 1.82 1.70 1.69 1.81 1.69 1.43 1.34 1.36 1.31 1.40 1.31 1.24 1.41 1.28 1.25 1.32 1.34 1.38 1.41 1.40 1.38 1.42 1.31 1.40 1.41 1.41 1.29 1.15 1.10 1.13 1.20 1.29 1.35 1.33 1.33 1.37 1.42 1.43 1.43 1.43 1.40 1.31
1.93 1.87 1.59 1.61 1.65 1.59 1.31 1.52 1.32 1.28 1.28 1.37 1.16 1.15 1.16 1.34 1.32 1.30 1.35 1.33 1.39 1.41 1.45 1.39 1.29 1.35 1.39 1.36 1.30 1.17 1.14 1.14 1.18 1.20 1.18 1.19 1.26 1.32 1.32 1.34 1.36 1.35 1.27
1.74 1.80 1.69 1.79 1.67 1.43 1.35 1.32 1.37 1.31 1.28 1.21 1.00 1.09 0.90 1.05 1.20 1.31 1.33 1.28 1.33 1.40 1.37 1.38 1.39 1.30 1.36 1.38 1.41 1.31 1.18 1.09 1.12 1.13 1.15 1.17 1.21 1.24 1.26 1.28 1.29 1.26 1.19
1.65 1.84 1.79 1.76 1.60 1.47 1.34 1.35 1.30 1.29 1.05 1.19 1.17 1.14 0.91 0.92 1.14 1.31 1.28 1.25 1.29 1.25 1.33 1.38 1.42 1.42 1.40 1.36 1.44 1.43 1.30 1.16 1.09 1.11 1.13 1.15 1.18 1.22 1.25 1.27 1.27 1.22 1.17
1.55 1.88 1.75 1.73 1.62 1.62 1.41 1.39 1.49 1.40 1.29 1.19 1.23 1.34 1.30 1.24 0.97 0.95 1.25 1.28 1.21 1.24 1.34 1.34 1.37 1.39 1.40 1.39 1.38 1.41 1.41 1.30 1.20 1.18 1.21 1.22 1.20 1.20 1.21 1.25 1.25 1.21 1.18
1.65 1.62 1.70 1.66 1.59 1.63 1.51 1.40 1.54 1.57 1.43 1.34 1.23 1.24 1.19 1.28 1.28 1.17 1.03 1.10 1.22 1.27 1.32 1.29 1.30 1.31 1.33 1.37 1.40 1.42 1.47 1.44 1.34 1.27 1.23 1.21 1.22 1.22 1.23 1.27 1.28 1.24 1.18
1.62 1.61 1.74 1.66 1.60 1.70 1.57 1.48 1.49 1.49 1.47 1.44 1.38 1.31 1.25 1.29 1.18 1.23 1.15 1.13 1.13 1.21 1.31 1.31 1.29 1.34 1.36 1.41 1.45 1.46 1.48 1.47 1.42 1.34 1.29 1.27 1.27 1.29 1.31 1.32 1.30 1.26 1.22
1.58 1.52 1.58 1.58 1.56 1.66 1.72 1.54 1.44 1.42 1.42 1.46 1.43 1.50 1.44 1.36 1.32 1.33 1.23 1.18 1.17 1.26 1.30 1.38 1.34 1.35 1.38 1.40 1.42 1.45 1.47 1.46 1.41 1.35 1.34 1.36 1.38 1.38 1.40 1.35 1.29 1.29 1.27
1.39 1.58 1.59 1.57 1.45 1.48 1.62 1.62 1.52 1.33 1.42 1.38 1.37 1.45 1.44 1.38 1.37 1.37 1.23 1.16 1.08 1.16 1.27 1.22 1.35 1.36 1.39 1.44 1.45 1.45 1.48 1.48 1.45 1.48 1.61 1.60 1.55 1.65 1.67 1.60 1.52 1.47 1.38
1.44 1.53 1.59 1.53 1.53 1.48 1.43 1.56 1.56 1.45 1.42 1.32 1.29 1.27 1.23 1.27 1.38 1.45 1.33 1.25 1.19 1.02 1.06 1.25 1.20 1.40 1.40 1.46 1.46 1.48 1.50 1.54 1.57 1.80 1.82 1.76 1.79 1.89 1.87 1.84 1.76 1.62 1.56
1.39 1.43 1.54 1.53 1.50 1.45 1.37 1.46 1.45 1.56 1.52 1.51 1.40 1.28 1.21 1.29 1.37 1.50 1.40 1.31 1.37 1.24 1.03 1.25 1.25 1.40 1.47 1.45 1.48 1.51 1.51 1.62 1.77 1.84 1.82 1.82 1.88 1.94 1.95 1.94 1.83 1.73 1.65
1.40 1.40 1.49 1.51 1.47 1.38 1.24 1.25 1.39 1.40 1.47 1.44 1.52 1.35 1.38 1.39 1.35 1.45 1.48 1.41 1.28 1.23 1.02 1.13 1.27 1.36 1.35 1.34 1.38 1.53 1.62 1.71 1.86 1.84 1.79 1.75 1.83 1.91 1.91 1.92 1.84 1.75 1.71
1.26 1.53 1.49 1.41 1.40 1.35 1.28 1.18 1.18 1.27 1.39 1.44 1.44 1.42 1.45 1.53 1.39 1.43 1.45 1.40 1.38 1.42 1.27 1.09 1.22 1.24 1.37 1.44 1.51 1.53 1.64 1.85 1.85 1.84 1.76 1.73 1.85 1.88 1.88 1.97 1.92 1.78 1.73
1.10 1.36 1.50 1.38 1.30 1.26 1.19 1.14 1.14 1.14 1.24 1.36 1.45 1.46 1.35 1.43 1.43 1.40 1.39 1.39 1.43 1.43 1.41 1.26 1.18 1.34 1.31 1.44 1.44 1.56 1.70 1.78 1.82 1.77 1.73 1.78 1.84 1.91 2.14 2.15 2.02 1.84 1.66
1.03 1.16 1.30 1.32 1.26 1.20 1.18 1.14 1.13 1.10 1.14 1.23 1.32 1.40 1.41 1.38 1.37 1.37 1.37 1.36 1.32 1.29 1.26 1.19 1.13 1.16 1.30 1.33 1.41 1.40 1.32 1.38 1.32 1.45 1.54 1.80 2.12 2.16 2.15 2.16 2.09 1.78 1.74
1.00 1.12 1.12 1.25 1.24 1.19 1.13 1.12 1.15 1.10 1.10 1.14 1.14 1.23 1.35 1.36 1.35 1.37 1.37 1.36 1.35 1.28 1.23 1.22 1.20 1.20 1.14 1.16 1.14 1.27 1.23 1.28 1.40 1.58 1.76 1.96 2.02 2.10 2.17 2.20 2.13 1.86 1.71
1.15 1.08 1.08 1.14 1.20 1.22 1.18 1.17 1.20 1.18 1.17 1.11 1.08 1.13 1.14 1.27 1.34 1.36 1.39 1.39 1.36 1.23 1.15 1.16 1.11 1.03 1.01 1.11 1.22 1.29 1.28 1.27 1.27 1.87 1.83 1.84 2.07 2.07 2.16 2.18 1.99 1.78 1.51
1.10 1.19 1.16 1.12 1.09 1.16 1.17 1.14 1.18 1.21 1.17 1.16 1.14 1.13 1.13 1.17 1.20 1.25 1.28 1.30 1.30 1.32 1.30 1.17 1.05 1.05 1.13 1.27 1.35 1.30 1.33 1.46 1.55 1.82 1.87 1.70 2.04 1.98 2.20 2.08 1.73 1.51 1.29
1.18 1.15 1.18 1.19 1.11 1.12 1.16 1.14 1.17 1.24 1.23 1.21 1.22 1.20 1.16 1.12 1.15 1.16 1.14 1.20 1.22 1.24 1.24 1.29 1.29 1.32 1.42 1.48 1.45 1.43 1.57 1.75 1.88 1.90 1.90 1.57 1.93 1.89 2.07 1.80 1.51 1.32 1.23
1.23 1.19 1.23 1.24 1.17 1.13 1.17 1.16 1.18 1.19 1.21 1.20 1.24 1.23 1.17 1.11 1.10 1.16 1.11 1.02 1.10 1.16 1.39 1.44 1.49 1.50 1.46 1.46 1.54 1.72 1.78 1.67 1.56 1.68 1.94 1.81 1.82 1.85 1.90 1.54 1.36 1.29 1.12
1.19 1.27 1.21 1.23 1.23 1.14 1.18 1.17 1.20 1.21 1.14 1.11 1.19 1.20 1.20 1.15 1.14 1.14 1.10 1.04 0.96 0.96 1.08 1.19 1.31 1.39 1.49 1.70 1.95 1.96 1.81 1.69 1.65 1.58 1.90 1.75 1.74 1.78 1.44 1.38 1.28 1.15 1.10

GFSMA_prec_pwat_060.txt.gz
Precipitable_Water
1.77 1.85 1.80 1.81 1.67 1.74 1.45 1.42 1.48 1.62 1.68 1.78 1.69 1.66 1.62 1.55 1.52 1.53 1.45 1.48 1.43 1.42 1.39 1.32 1.34 1.32 1.34 1.35 1.37 1.38 1.34 1.30 1.28 1.28 1.26 1.36 1.39 1.42 1.47 1.48 1.47 1.46 1.48
1.77 1.76 1.83 1.79 1.64 1.64 1.54 1.63 1.53 1.56 1.54 1.70 1.60 1.58 1.54 1.56 1.63 1.66 1.65 1.64 1.58 1.50 1.46 1.35 1.31 1.33 1.40 1.38 1.35 1.38 1.36 1.28 1.24 1.22 1.25 1.33 1.39 1.49 1.48 1.45 1.46 1.48 1.43
1.83 1.76 1.77 1.83 1.59 1.53 1.46 1.47 1.51 1.51 1.56 1.64 1.62 1.61 1.58 1.64 1.65 1.63 1.61 1.65 1.64 1.59 1.54 1.48 1.39 1.41 1.44 1.37 1.31 1.27 1.24 1.23 1.22 1.30 1.40 1.47 1.50 1.53 1.51 1.47 1.49 1.48 1.43
1.87 1.77 1.69 1.59 1.63 1.58 1.42 1.33 1.44 1.38 1.49 1.48 1.52 1.59 1.61 1.65 1.65 1.59 1.55 1.49 1.49 1.51 1.52 1.47 1.42 1.41 1.34 1.30 1.29 1.28 1.29 1.35 1.42 1.50 1.55 1.52 1.49 1.51 1.52 1.50 1.45 1.42 1.37
1.97 1.74 1.62 1.56 1.53 1.41 1.34 1.29 1.32 1.36 1.33 1.38 1.39 1.46 1.54 1.53 1.55 1.52 1.42 1.40 1.38 1.40 1.35 1.44 1.41 1.39 1.33 1.30 1.30 1.30 1.30 1.34 1.42 1.48 1.46 1.41 1.42 1.46 1.47 1.44 1.40 1.36 1.32
1.82 1.81 1.68 1.63 1.72 1.51 1.32 1.24 1.28 1.36 1.35 1.30 1.32 1.28 1.31 1.36 1.40 1.39 1.35 1.38 1.37 1.37 1.38 1.32 1.38 1.39 1.27 1.32 1.27 1.25 1.25 1.26 1.28 1.32 1.33 1.31 1.33 1.38 1.40 1.39 1.36 1.33 1.28
1.92 1.70 1.59 1.64 1.68 1.46 1.29 1.33 1.29 1.25 1.27 1.28 1.17 1.16 1.27 1.32 1.30 1.34 1.37 1.34 1.38 1.41 1.46 1.47 1.33 1.36 1.39 1.41 1.40 1.29 1.20 1.19 1.17 1.18 1.19 1.20 1.22 1.29 1.31 1.32 1.31 1.30 1.25
1.88 1.69 1.66 1.58 1.45 1.32 1.37 1.39 1.28 1.29 1.24 1.20 1.05 1.02 0.91 1.01 1.25 1.29 1.34 1.33 1.33 1.38 1.44 1.50 1.46 1.42 1.39 1.37 1.38 1.37 1.26 1.18 1.15 1.17 1.17 1.17 1.17 1.20 1.22 1.26 1.30 1.29 1.24
1.72 1.75 1.65 1.61 1.51 1.44 1.34 1.36 1.36 1.36 1.06 1.13 1.14 1.02 0.85 0.87 1.12 1.27 1.22 1.25 1.24 1.32 1.41 1.46 1.48 1.49 1.44 1.37 1.39 1.41 1.39 1.34 1.26 1.19 1.19 1.18 1.17 1.19 1.21 1.25 1.27 1.25 1.20
1.65 1.77 1.77 1.70 1.52 1.48 1.33 1.39 1.42 1.29 1.15 1.10 1.21 1.32 1.28 1.25 1.02 0.94 1.18 1.21 1.23 1.27 1.33 1.38 1.43 1.43 1.42 1.40 1.42 1.44 1.48 1.46 1.37 1.29 1.24 1.23 1.23 1.25 1.25 1.24 1.23 1.21 1.18
1.66 1.66 1.64 1.65 1.62 1.59 1.40 1.36 1.46 1.36 1.32 1.28 1.20 1.25 1.21 1.25 1.26 1.12 0.98 1.09 1.23 1.27 1.29 1.31 1.31 1.32 1.36 1.41 1.45 1.48 1.49 1.47 1.42 1.38 1.35 1.34 1.35 1.36 1.31 1.26 1.24 1.23 1.20
1.66 1.61 1.60 1.59 1.64 1.63 1.43 1.42 1.52 1.48 1.35 1.37 1.32 1.32 1.23 1.20 1.21 1.17 1.11 1.14 1.15 1.23 1.32 1.33 1.32 1.37 1.39 1.38 1.41 1.42 1.44 1.45 1.52 1.57 1.59 1.55 1.56 1.54 1.50 1.48 1.42 1.37 1.34
1.63 1.59 1.56 1.57 1.54 1.59 1.53 1.42 1.45 1.47 1.40 1.35 1.39 1.36 1.39 1.36 1.35 1.31 1.23 1.18 1.16 1.24 1.23 1.34 1.32 1.38 1.44 1.47 1.48 1.49 1.49 1.54 1.65 1.79 1.77 1.75 1.84 1.83 1.81 1.81 1.72 1.60 1.50
1.52 1.62 1.53 1.54 1.53 1.49 1.62 1.47 1.35 1.36 1.40 1.40 1.43 1.45 1.38 1.36 1.41 1.39 1.27 1.18 1.07 1.11 1.21 1.21 1.35 1.35 1.40 1.46 1.47 1.50 1.53 1.62 1.79 1.79 1.77 1.76 1.89 1.97 1.96 1.94 1.84 1.75 1.66
1.47 1.56 1.61 1.57 1.54 1.51 1.44 1.49 1.41 1.27 1.29 1.31 1.30 1.39 1.37 1.38 1.39 1.43 1.44 1.30 1.12 0.93 1.00 1.20 1.17 1.38 1.40 1.42 1.41 1.48 1.54 1.68 1.83 1.82 1.80 1.76 1.77 1.92 1.95 1.95 1.91 1.85 1.75
1.59 1.46 1.51 1.54 1.53 1.47 1.46 1.41 1.41 1.44 1.30 1.30 1.25 1.22 1.21 1.27 1.33 1.40 1.49 1.40 1.33 1.17 1.03 1.24 1.23 1.33 1.44 1.45 1.49 1.51 1.56 1.70 1.82 1.79 1.75 1.76 1.80 1.83 1.94 1.92 1.88 1.88 1.78
1.55 1.44 1.45 1.46 1.46 1.42 1.42 1.32 1.32 1.37 1.36 1.36 1.34 1.27 1.16 1.28 1.33 1.39 1.47 1.45 1.38 1.32 1.12 1.20 1.28 1.38 1.35 1.35 1.50 1.64 1.72 1.70 1.82 1.83 1.84 1.82 1.79 1.86 1.90 1.95 2.04 2.00 1.85
1.45 1.45 1.42 1.45 1.46 1.39 1.34 1.24 1.17 1.31 1.32 1.35 1.35 1.32 1.24 1.32 1.30 1.37 1.41 1.36 1.35 1.37 1.24 1.08 1.22 1.25 1.30 1.43 1.48 1.52 1.58 1.72 1.84 1.80 1.70 1.64 1.75 1.84 2.02 2.16 2.15 2.03 1.85
1.32 1.45 1.47 1.40 1.38 1.36 1.30 1.21 1.15 1.14 1.20 1.32 1.41 1.38 1.32 1.35 1.33 1.37 1.38 1.37 1.39 1.42 1.43 1.31 1.21 1.31 1.28 1.31 1.39 1.42 1.46 1.62 1.52 1.47 1.53 1.70 1.94 2.14 2.18 2.15 2.14 2.08 1.81
1.19 1.24 1.34 1.43 1.40 1.37 1.31 1.25 1.15 1.08 1.09 1.15 1.32 1.45 1.47 1.42 1.30 1.30 1.33 1.31 1.34 1.29 1.29 1.23 1.19 1.13 1.18 1.36 1.32 1.23 1.28 1.42 1.35 1.54 1.83 1.97 2.06 2.10 2.15 2.18 2.19 2.08 1.69
1.13 1.17 1.16 1.28 1.43 1.39 1.30 1.21 1.15 1.05 1.03 1.03 1.12 1.21 1.32 1.45 1.48 1.44 1.38 1.33 1.33 1.27 1.24 1.18 1.11 1.14 1.13 1.04 1.07 1.19 1.24 1.38 1.42 1.70 1.79 1.92 1.96 2.07 2.14 2.18 2.18 1.78 1.47
1.01 1.04 1.05 1.02 1.20 1.31 1.32 1.26 1.18 1.07 1.05 1.03 0.98 1.10 1.19 1.21 1.28 1.36 1.38 1.39 1.38 1.27 1.20 1.16 1.10 1.02 0.95 1.04 1.13 1.25 1.28 1.26 1.24 1.81 1.80 1.75 1.90 1.95 2.07 2.13 1.97 1.52 1.35
1.00 1.00 1.03 1.04 1.05 1.19 1.25 1.23 1.21 1.17 1.12 1.09 1.04 1.05 1.05 1.16 1.21 1.21 1.25 1.32 1.35 1.37 1.38 1.29 1.13 1.04 1.05 1.15 1.28 1.30 1.37 1.35 1.44 1.77 1.84 1.61 1.91 1.92 2.10 2.08 1.64 1.40 1.29
1.20 1.05 1.05 1.05 1.05 1.11 1.15 1.13 1.14 1.18 1.13 1.14 1.13 1.12 1.08 1.07 1.13 1.15 1.15 1.11 1.12 1.18 1.28 1.32 1.25 1.18 1.29 1.37 1.48 1.48 1.45 1.57 1.81 1.87 1.95 1.60 1.98 1.88 2.01 1.82 1.57 1.36 1.25
1.28 1.19 1.14 1.18 1.10 1.10 1.12 1.12 1.12 1.15 1.11 1.08 1.15 1.17 1.17 1.13 1.14 1.18 1.13 1.06 1.04 1.01 1.14 1.22 1.27 1.32 1.44 1.51 1.51 1.56 1.59 1.59 1.56 1.67 1.95 1.86 1.85 1.82 1.84 1.69 1.48 1.30 1.15
1.27 1.30 1.25 1.21 1.23 1.21 1.29 1.20 1.15 1.12 1.05 1.05 1.12 1.15 1.21 1.22 1.22 1.20 1.14 1.05 0.95 0.91 0.98 1.03 1.14 1.29 1.43 1.56 1.82 1.91 1.84 1.62 1.59 1.59 1.91 1.79 1.82 1.77 1.44 1.60 1.39 1.23 1.15

GFSMA_prec_pwat_063.txt.gz
Precipitable_Water
1.73 1.69 1.74 1.54 1.61 1.55 1.51 1.55 1.68 1.66 1.75 1.69 1.65 1.58 1.53 1.46 1.44 1.46 1.48 1.44 1.40 1.38 1.32 1.29 1.30 1.29 1.29 1.34 1.32 1.33 1.26 1.25 1.27 1.34 1.34 1.43 1.47 1.48 1.49 1.45 1.46 1.49 1.47
1.85 1.84 1.79 1.69 1.57 1.49 1.54 1.54 1.56 1.63 1.65 1.61 1.54 1.54 1.54 1.54 1.58 1.60 1.61 1.58 1.47 1.44 1.41 1.33 1.32 1.33 1.40 1.37 1.32 1.34 1.31 1.33 1.36 1.38 1.41 1.44 1.45 1.55 1.59 1.51 1.47 1.44 1.39
1.78 1.85 1.83 1.66 1.57 1.47 1.57 1.59 1.56 1.60 1.62 1.62 1.51 1.53 1.57 1.57 1.57 1.55 1.58 1.59 1.58 1.56 1.53 1.44 1.40 1.39 1.42 1.37 1.29 1.29 1.39 1.44 1.46 1.49 1.50 1.51 1.51 1.54 1.52 1.48 1.42 1.37 1.34
1.83 1.71 1.73 1.66 1.59 1.51 1.43 1.46 1.45 1.51 1.56 1.58 1.52 1.56 1.60 1.57 1.52 1.49 1.48 1.48 1.49 1.45 1.49 1.48 1.41 1.33 1.31 1.28 1.31 1.38 1.41 1.45 1.49 1.53 1.54 1.53 1.47 1.46 1.45 1.43 1.38 1.34 1.31
1.87 1.72 1.60 1.62 1.54 1.41 1.36 1.36 1.36 1.46 1.40 1.43 1.50 1.56 1.58 1.53 1.50 1.45 1.42 1.38 1.39 1.39 1.36 1.45 1.42 1.40 1.34 1.28 1.28 1.29 1.31 1.34 1.38 1.44 1.44 1.40 1.39 1.42 1.45 1.41 1.38 1.35 1.30
1.89 1.74 1.68 1.64 1.54 1.40 1.33 1.35 1.30 1.35 1.36 1.34 1.35 1.34 1.43 1.43 1.45 1.39 1.37 1.39 1.38 1.39 1.38 1.29 1.39 1.41 1.38 1.39 1.36 1.29 1.26 1.25 1.26 1.28 1.29 1.28 1.28 1.31 1.35 1.35 1.35 1.33 1.28
1.86 1.70 1.70 1.59 1.67 1.43 1.29 1.30 1.21 1.27 1.24 1.35 1.16 1.20 1.23 1.29 1.29 1.32 1.37 1.38 1.39 1.45 1.47 1.48 1.39 1.42 1.43 1.41 1.40 1.38 1.29 1.24 1.24 1.22 1.21 1.20 1.20 1.23 1.29 1.28 1.27 1.26 1.23
1.78 1.68 1.62 1.51 1.46 1.34 1.30 1.31 1.25 1.26 1.21 1.19 1.05 1.10 0.90 1.02 1.18 1.24 1.31 1.33 1.37 1.42 1.44 1.52 1.51 1.44 1.37 1.40 1.40 1.41 1.42 1.35 1.25 1.22 1.23 1.23 1.23 1.23 1.25 1.24 1.23 1.23 1.21
1.78 1.72 1.64 1.53 1.45 1.36 1.33 1.33 1.26 1.26 1.08 1.09 1.18 1.05 0.89 0.84 1.04 1.20 1.17 1.23 1.29 1.34 1.41 1.44 1.45 1.47 1.45 1.39 1.43 1.47 1.49 1.49 1.44 1.37 1.33 1.32 1.30 1.24 1.22 1.21 1.20 1.21 1.20
1.72 1.76 1.59 1.56 1.54 1.49 1.35 1.37 1.38 1.38 1.15 0.97 1.15 1.30 1.29 1.22 0.97 0.88 1.10 1.17 1.26 1.23 1.31 1.34 1.37 1.40 1.43 1.47 1.48 1.50 1.48 1.50 1.52 1.53 1.49 1.48 1.45 1.39 1.33 1.27 1.24 1.22 1.21
1.73 1.78 1.77 1.69 1.51 1.46 1.43 1.44 1.43 1.35 1.25 1.23 1.18 1.25 1.23 1.22 1.25 1.05 0.93 1.05 1.20 1.23 1.29 1.30 1.32 1.36 1.44 1.46 1.45 1.46 1.49 1.61 1.70 1.77 1.81 1.83 1.75 1.72 1.68 1.61 1.52 1.44 1.38
1.64 1.66 1.72 1.66 1.63 1.52 1.48 1.43 1.46 1.43 1.35 1.39 1.35 1.28 1.20 1.18 1.16 1.13 1.08 1.12 1.10 1.19 1.25 1.27 1.31 1.36 1.40 1.45 1.50 1.52 1.57 1.69 1.80 1.82 1.86 1.94 1.94 1.91 1.89 1.86 1.80 1.71 1.65
1.57 1.59 1.62 1.64 1.59 1.59 1.57 1.49 1.47 1.41 1.41 1.39 1.37 1.30 1.33 1.38 1.31 1.31 1.20 1.17 1.12 1.21 1.21 1.28 1.32 1.37 1.40 1.45 1.49 1.51 1.59 1.78 1.77 1.75 1.75 1.84 1.93 1.94 1.97 1.95 1.92 1.87 1.77
1.59 1.70 1.67 1.63 1.68 1.55 1.58 1.41 1.41 1.46 1.46 1.43 1.43 1.42 1.38 1.43 1.41 1.43 1.27 1.17 1.04 1.09 1.19 1.19 1.35 1.38 1.43 1.43 1.44 1.47 1.58 1.77 1.80 1.81 1.75 1.76 1.83 1.82 1.84 1.90 1.89 1.88 1.86
1.63 1.64 1.66 1.52 1.64 1.59 1.54 1.60 1.40 1.33 1.41 1.42 1.41 1.41 1.41 1.41 1.41 1.46 1.47 1.32 1.13 0.91 0.98 1.16 1.17 1.42 1.46 1.46 1.45 1.50 1.53 1.69 1.79 1.80 1.80 1.77 1.78 1.80 1.83 1.94 1.95 1.92 1.96
1.60 1.59 1.60 1.66 1.60 1.69 1.61 1.50 1.51 1.43 1.29 1.29 1.36 1.40 1.40 1.40 1.38 1.41 1.47 1.42 1.31 1.12 0.98 1.22 1.25 1.33 1.43 1.47 1.52 1.65 1.59 1.72 1.85 1.85 1.83 1.81 1.79 1.72 1.91 1.94 1.99 2.08 2.04
1.56 1.57 1.55 1.56 1.62 1.60 1.61 1.56 1.46 1.45 1.39 1.24 1.27 1.26 1.25 1.36 1.32 1.38 1.41 1.42 1.33 1.26 1.07 1.21 1.31 1.38 1.38 1.40 1.48 1.52 1.65 1.70 1.79 1.71 1.61 1.50 1.54 1.68 1.95 2.12 2.15 2.14 2.02
1.49 1.63 1.59 1.52 1.56 1.55 1.55 1.48 1.42 1.40 1.38 1.33 1.33 1.27 1.27 1.31 1.27 1.37 1.39 1.36 1.37 1.36 1.21 1.04 1.20 1.28 1.32 1.39 1.37 1.41 1.54 1.63 1.71 1.54 1.52 1.72 1.94 2.03 2.09 2.14 2.13 2.12 2.07
1.33 1.44 1.45 1.44 1.46 1.47 1.50 1.45 1.41 1.31 1.34 1.36 1.41 1.40 1.35 1.31 1.27 1.32 1.38 1.37 1.40 1.42 1.40 1.26 1.19 1.32 1.30 1.32 1.29 1.43 1.32 1.38 1.40 1.53 1.64 1.94 1.98 2.04 2.06 2.13 2.12 2.08 1.98
1.21 1.29 1.40 1.42 1.44 1.46 1.47 1.43 1.37 1.30 1.22 1.25 1.29 1.36 1.42 1.38 1.36 1.38 1.37 1.36 1.38 1.31 1.34 1.26 1.18 1.16 1.19 1.27 1.36 1.12 1.01 1.27 1.33 1.50 1.83 1.92 2.02 2.04 2.07 2.16 2.08 1.96 1.70
1.07 1.17 1.27 1.36 1.42 1.44 1.43 1.41 1.35 1.29 1.26 1.18 1.21 1.23 1.31 1.47 1.50 1.49 1.42 1.35 1.36 1.30 1.25 1.19 1.14 1.13 1.07 1.04 1.01 1.14 1.12 1.27 1.34 1.51 1.73 1.82 1.89 1.93 2.08 2.04 1.92 1.79 1.45
0.94 1.00 1.07 1.18 1.24 1.33 1.35 1.31 1.34 1.26 1.23 1.17 1.12 1.18 1.19 1.23 1.29 1.38 1.44 1.45 1.45 1.33 1.22 1.18 1.14 1.07 1.05 1.08 1.09 1.11 1.15 1.16 1.12 1.62 1.70 1.73 1.92 1.92 2.04 1.93 1.82 1.62 1.36
1.27 1.12 0.93 0.98 1.06 1.16 1.22 1.21 1.26 1.29 1.20 1.15 1.10 1.11 1.14 1.18 1.18 1.24 1.27 1.27 1.28 1.33 1.39 1.35 1.18 1.13 1.10 1.13 1.17 1.11 1.19 1.23 1.28 1.63 1.74 1.64 1.90 1.87 1.94 1.81 1.74 1.58 1.32
1.33 1.28 1.23 1.12 0.95 0.98 1.01 1.06 1.06 1.20 1.25 1.20 1.19 1.16 1.14 1.15 1.18 1.19 1.17 1.18 1.22 1.23 1.22 1.23 1.22 1.25 1.30 1.27 1.25 1.33 1.34 1.35 1.63 1.77 1.86 1.55 1.86 1.85 1.85 1.78 1.72 1.49 1.27
1.44 1.35 1.32 1.29 1.21 1.06 0.99 0.96 0.98 1.07 1.11 1.07 1.10 1.19 1.20 1.16 1.19 1.22 1.21 1.09 1.05 1.05 1.20 1.23 1.23 1.23 1.23 1.24 1.30 1.36 1.29 1.45 1.46 1.56 1.80 1.72 1.78 1.85 1.79 1.70 1.63 1.44 1.23
1.48 1.49 1.36 1.30 1.27 1.22 1.18 1.09 1.05 1.03 1.04 1.04 1.06 1.08 1.12 1.15 1.17 1.22 1.21 1.16 1.02 0.94 1.02 1.05 1.11 1.15 1.20 1.26 1.39 1.52 1.61 1.57 1.57 1.51 1.76 1.67 1.74 1.79 1.51 1.74 1.62 1.48 1.23

GFSMA_prec_pwat_069.txt.gz
Precipitable_Water
1.64 1.58 1.61 1.59 1.69 1.68 1.61 1.65 1.67 1.69 1.68 1.64 1.63 1.60 1.53 1.49 1.54 1.50 1.48 1.40 1.39 1.35 1.34 1.34 1.36 1.36 1.33 1.35 1.41 1.47 1.48 1.47 1.46 1.44 1.42 1.42 1.41 1.47 1.54 1.46 1.40 1.34 1.31
1.75 1.66 1.57 1.58 1.55 1.64 1.68 1.71 1.70 1.66 1.62 1.60 1.59 1.62 1.55 1.56 1.60 1.59 1.58 1.56 1.46 1.46 1.47 1.41 1.42 1.38 1.47 1.58 1.52 1.51 1.56 1.51 1.48 1.46 1.43 1.43 1.45 1.47 1.46 1.42 1.33 1.29 1.26
1.87 1.82 1.79 1.60 1.49 1.55 1.58 1.72 1.74 1.71 1.61 1.58 1.59 1.63 1.61 1.56 1.55 1.56 1.55 1.54 1.55 1.53 1.53 1.48 1.39 1.40 1.46 1.52 1.50 1.48 1.44 1.43 1.43 1.44 1.43 1.44 1.47 1.38 1.37 1.35 1.32 1.29 1.26
1.87 1.81 1.76 1.61 1.61 1.59 1.59 1.57 1.60 1.59 1.55 1.54 1.53 1.55 1.53 1.51 1.47 1.47 1.49 1.48 1.49 1.50 1.45 1.40 1.47 1.45 1.41 1.38 1.37 1.35 1.34 1.34 1.36 1.35 1.35 1.36 1.32 1.29 1.32 1.35 1.30 1.29 1.28
1.87 1.77 1.69 1.61 1.53 1.49 1.46 1.50 1.59 1.57 1.51 1.52 1.49 1.51 1.53 1.48 1.45 1.42 1.39 1.39 1.38 1.37 1.36 1.39 1.40 1.41 1.42 1.41 1.38 1.35 1.33 1.32 1.30 1.29 1.28 1.28 1.28 1.26 1.26 1.27 1.28 1.28 1.26
1.90 1.74 1.63 1.59 1.55 1.38 1.36 1.46 1.53 1.59 1.57 1.50 1.44 1.42 1.42 1.40 1.37 1.34 1.33 1.39 1.40 1.41 1.43 1.42 1.45 1.43 1.39 1.40 1.39 1.40 1.41 1.41 1.38 1.33 1.32 1.29 1.25 1.22 1.19 1.21 1.23 1.23 1.25
1.87 1.71 1.64 1.57 1.55 1.37 1.32 1.39 1.39 1.41 1.40 1.45 1.33 1.27 1.24 1.25 1.20 1.23 1.31 1.35 1.43 1.49 1.53 1.54 1.51 1.46 1.44 1.40 1.42 1.49 1.55 1.57 1.58 1.56 1.47 1.39 1.34 1.28 1.23 1.19 1.20 1.20 1.21
1.83 1.74 1.65 1.51 1.53 1.35 1.36 1.31 1.32 1.35 1.34 1.35 1.14 1.13 0.92 1.01 1.11 1.21 1.25 1.32 1.37 1.47 1.47 1.49 1.49 1.49 1.48 1.51 1.52 1.52 1.59 1.68 1.73 1.78 1.77 1.73 1.66 1.61 1.54 1.44 1.36 1.31 1.28
1.83 1.75 1.66 1.51 1.48 1.45 1.33 1.31 1.28 1.30 1.16 1.16 1.22 1.10 0.93 0.89 1.07 1.19 1.18 1.25 1.32 1.34 1.37 1.40 1.45 1.48 1.53 1.55 1.55 1.61 1.69 1.79 1.89 1.90 1.90 1.92 1.91 1.88 1.84 1.77 1.69 1.61 1.52
1.84 1.74 1.64 1.59 1.49 1.47 1.37 1.33 1.38 1.33 1.16 1.02 1.17 1.26 1.28 1.24 1.04 0.97 1.17 1.20 1.27 1.26 1.30 1.33 1.36 1.45 1.49 1.50 1.57 1.64 1.74 1.82 1.84 1.86 1.88 1.87 1.88 1.90 1.88 1.89 1.88 1.86 1.80
1.78 1.71 1.61 1.63 1.58 1.52 1.44 1.39 1.33 1.30 1.24 1.08 1.13 1.22 1.25 1.28 1.36 1.12 0.99 1.08 1.22 1.26 1.29 1.32 1.39 1.42 1.47 1.54 1.59 1.68 1.75 1.79 1.76 1.77 1.79 1.79 1.84 1.83 1.84 1.85 1.88 1.95 1.92
1.72 1.70 1.74 1.70 1.65 1.57 1.55 1.44 1.40 1.39 1.32 1.25 1.26 1.32 1.23 1.25 1.26 1.23 1.13 1.14 1.14 1.25 1.35 1.43 1.42 1.44 1.51 1.54 1.56 1.62 1.72 1.79 1.78 1.84 1.90 1.84 1.80 1.84 1.85 1.86 1.84 1.91 1.97
1.59 1.64 1.75 1.71 1.61 1.59 1.57 1.51 1.39 1.41 1.44 1.33 1.36 1.32 1.34 1.39 1.45 1.42 1.28 1.21 1.19 1.29 1.35 1.45 1.50 1.53 1.56 1.59 1.57 1.60 1.69 1.80 1.86 1.85 1.75 1.67 1.63 1.61 1.63 1.71 1.77 1.88 1.96
1.55 1.66 1.72 1.75 1.60 1.63 1.68 1.66 1.49 1.41 1.43 1.43 1.39 1.43 1.39 1.43 1.53 1.51 1.40 1.28 1.16 1.17 1.27 1.31 1.48 1.50 1.58 1.59 1.61 1.56 1.61 1.65 1.73 1.75 1.67 1.61 1.57 1.59 1.80 1.83 1.87 1.94 2.00
1.62 1.66 1.73 1.73 1.64 1.61 1.60 1.57 1.51 1.41 1.43 1.45 1.44 1.42 1.40 1.45 1.53 1.52 1.51 1.46 1.27 1.06 1.07 1.27 1.29 1.51 1.56 1.62 1.59 1.54 1.53 1.51 1.55 1.59 1.57 1.48 1.57 1.75 1.98 2.00 2.05 2.06 2.04
1.63 1.67 1.69 1.73 1.66 1.65 1.61 1.59 1.51 1.52 1.44 1.42 1.41 1.40 1.39 1.42 1.47 1.51 1.47 1.45 1.43 1.27 1.06 1.28 1.30 1.43 1.54 1.58 1.55 1.51 1.52 1.50 1.51 1.43 1.47 1.43 1.62 1.85 1.99 1.98 2.01 2.07 2.02
1.60 1.60 1.65 1.65 1.63 1.59 1.61 1.58 1.51 1.41 1.41 1.38 1.40 1.37 1.37 1.44 1.39 1.46 1.49 1.46 1.37 1.33 1.14 1.26 1.37 1.44 1.44 1.42 1.41 1.45 1.49 1.49 1.38 1.33 1.44 1.45 1.66 1.85 1.97 1.97 1.98 2.01 1.96
1.50 1.49 1.52 1.56 1.59 1.64 1.65 1.60 1.59 1.53 1.43 1.32 1.32 1.32 1.27 1.38 1.37 1.46 1.44 1.40 1.37 1.38 1.24 1.12 1.29 1.33 1.33 1.39 1.38 1.36 1.35 1.35 1.37 1.34 1.33 1.45 1.62 1.85 1.94 1.91 1.94 1.93 1.81
1.45 1.45 1.43 1.46 1.47 1.58 1.64 1.60 1.61 1.58 1.51 1.44 1.37 1.33 1.29 1.32 1.28 1.33 1.41 1.37 1.38 1.39 1.37 1.25 1.19 1.34 1.34 1.38 1.29 1.35 1.32 1.31 1.34 1.34 1.30 1.40 1.64 1.86 1.95 1.88 1.84 1.79 1.73
1.29 1.35 1.38 1.37 1.44 1.48 1.52 1.55 1.53 1.51 1.50 1.48 1.41 1.38 1.35 1.34 1.36 1.39 1.41 1.40 1.41 1.37 1.36 1.29 1.24 1.27 1.31 1.38 1.36 1.24 1.16 1.26 1.21 1.26 1.25 1.43 1.67 1.83 1.84 1.75 1.75 1.72 1.67
1.32 1.21 1.27 1.35 1.38 1.40 1.42 1.42 1.43 1.41 1.40 1.39 1.40 1.38 1.29 1.27 1.29 1.34 1.36 1.38 1.43 1.39 1.35 1.28 1.23 1.24 1.23 1.23 1.18 1.28 1.18 1.25 1.19 1.26 1.18 1.41 1.64 1.86 1.70 1.72 1.70 1.71 1.64
1.45 1.38 1.21 1.17 1.25 1.32 1.28 1.28 1.30 1.31 1.33 1.30 1.31 1.35 1.36 1.34 1.30 1.26 1.25 1.29 1.36 1.34 1.31 1.28 1.22 1.12 1.17 1.22 1.28 1.21 1.16 1.14 1.00 1.30 1.16 1.30 1.69 1.75 1.74 1.76 1.68 1.65 1.61
1.48 1.42 1.35 1.29 1.10 1.13 1.25 1.26 1.23 1.23 1.24 1.21 1.20 1.23 1.27 1.30 1.27 1.26 1.26 1.27 1.27 1.25 1.28 1.22 1.11 1.12 1.12 1.21 1.27 1.16 1.19 1.22 1.11 1.18 1.23 1.23 1.69 1.69 1.70 1.66 1.69 1.66 1.63
1.45 1.41 1.39 1.37 1.30 1.20 1.06 1.05 1.15 1.23 1.25 1.21 1.17 1.14 1.08 1.09 1.19 1.19 1.21 1.21 1.21 1.25 1.26 1.24 1.20 1.18 1.25 1.33 1.31 1.30 1.29 1.23 1.22 1.23 1.36 1.18 1.59 1.65 1.72 1.71 1.70 1.64 1.61
1.52 1.47 1.47 1.43 1.37 1.32 1.32 1.20 1.04 1.03 1.08 1.13 1.16 1.13 1.09 1.04 1.02 0.99 1.07 1.08 1.11 1.14 1.28 1.27 1.26 1.24 1.23 1.25 1.31 1.26 1.08 1.03 0.93 1.01 1.35 1.33 1.51 1.66 1.68 1.65 1.74 1.64 1.56
1.61 1.61 1.57 1.56 1.51 1.42 1.44 1.38 1.37 1.31 1.13 1.01 1.02 1.03 1.01 0.98 0.98 0.95 0.89 0.96 0.95 0.93 1.07 1.14 1.19 1.21 1.24 1.23 1.22 1.22 1.16 1.00 0.97 0.97 1.28 1.29 1.43 1.69 1.49 1.70 1.70 1.62 1.59

GFSMA_prec_pwat_072.txt.gz
Precipitable_Water
1.62 1.71 1.72 1.75 1.71 1.68 1.65 1.69 1.71 1.71 1.68 1.66 1.62 1.59 1.51 1.53 1.51 1.45 1.40 1.30 1.34 1.31 1.33 1.33 1.32 1.35 1.40 1.43 1.44 1.49 1.56 1.51 1.43 1.43 1.43 1.43 1.44 1.45 1.43 1.39 1.35 1.30 1.27
1.65 1.60 1.62 1.63 1.66 1.71 1.76 1.75 1.73 1.68 1.62 1.62 1.61 1.60 1.58 1.62 1.61 1.59 1.57 1.50 1.39 1.39 1.42 1.38 1.38 1.42 1.52 1.61 1.55 1.50 1.47 1.44 1.44 1.44 1.43 1.41 1.47 1.36 1.34 1.36 1.35 1.31 1.26
1.87 1.76 1.65 1.56 1.59 1.70 1.71 1.76 1.77 1.70 1.57 1.60 1.61 1.62 1.59 1.60 1.58 1.56 1.55 1.57 1.60 1.48 1.40 1.38 1.42 1.43 1.44 1.43 1.41 1.37 1.34 1.34 1.37 1.38 1.38 1.37 1.34 1.28 1.31 1.35 1.33 1.30 1.27
1.93 1.84 1.68 1.57 1.59 1.63 1.62 1.67 1.72 1.58 1.53 1.54 1.56 1.55 1.52 1.51 1.49 1.51 1.50 1.54 1.51 1.50 1.44 1.41 1.41 1.38 1.37 1.36 1.34 1.30 1.31 1.31 1.31 1.30 1.28 1.27 1.26 1.25 1.26 1.27 1.30 1.28 1.26
1.92 1.84 1.71 1.56 1.61 1.61 1.59 1.59 1.61 1.62 1.47 1.46 1.46 1.51 1.53 1.47 1.46 1.45 1.43 1.44 1.36 1.38 1.45 1.43 1.38 1.39 1.38 1.36 1.34 1.35 1.37 1.37 1.33 1.29 1.26 1.23 1.21 1.20 1.18 1.20 1.24 1.26 1.27
1.97 1.82 1.69 1.59 1.52 1.41 1.49 1.59 1.60 1.60 1.57 1.47 1.43 1.40 1.42 1.38 1.36 1.35 1.36 1.36 1.37 1.47 1.51 1.50 1.54 1.48 1.34 1.35 1.41 1.48 1.52 1.53 1.53 1.51 1.43 1.38 1.36 1.33 1.30 1.27 1.28 1.29 1.29
1.82 1.75 1.73 1.58 1.55 1.37 1.43 1.54 1.56 1.52 1.45 1.45 1.35 1.27 1.24 1.28 1.24 1.26 1.33 1.34 1.39 1.52 1.52 1.52 1.55 1.54 1.52 1.46 1.54 1.57 1.62 1.69 1.75 1.76 1.79 1.81 1.78 1.74 1.69 1.59 1.51 1.44 1.37
1.84 1.73 1.67 1.56 1.53 1.36 1.37 1.36 1.49 1.40 1.38 1.39 1.23 1.19 1.00 1.11 1.22 1.25 1.28 1.30 1.38 1.47 1.45 1.46 1.47 1.51 1.57 1.61 1.62 1.68 1.76 1.81 1.84 1.85 1.87 1.90 1.91 1.89 1.86 1.84 1.81 1.73 1.63
1.86 1.80 1.64 1.51 1.48 1.44 1.32 1.34 1.39 1.40 1.25 1.21 1.26 1.18 1.05 0.99 1.17 1.20 1.23 1.27 1.33 1.38 1.39 1.40 1.43 1.49 1.52 1.61 1.72 1.81 1.80 1.84 1.83 1.80 1.78 1.79 1.83 1.84 1.85 1.83 1.81 1.84 1.83
1.82 1.75 1.66 1.59 1.56 1.48 1.42 1.39 1.37 1.41 1.30 1.10 1.19 1.29 1.35 1.30 1.14 1.05 1.17 1.25 1.30 1.32 1.31 1.36 1.39 1.42 1.49 1.61 1.68 1.77 1.77 1.79 1.78 1.76 1.80 1.83 1.82 1.82 1.85 1.87 1.88 1.83 1.85
1.83 1.70 1.65 1.62 1.56 1.52 1.39 1.44 1.41 1.31 1.22 1.15 1.20 1.25 1.29 1.37 1.35 1.28 1.04 1.10 1.22 1.30 1.33 1.37 1.43 1.45 1.54 1.62 1.68 1.73 1.67 1.80 1.88 1.91 1.89 1.78 1.69 1.70 1.77 1.82 1.89 1.87 1.83
1.77 1.71 1.68 1.67 1.59 1.59 1.47 1.39 1.46 1.42 1.38 1.27 1.29 1.32 1.32 1.38 1.29 1.27 1.19 1.19 1.23 1.29 1.39 1.45 1.47 1.52 1.58 1.63 1.63 1.64 1.66 1.67 1.82 1.83 1.76 1.69 1.60 1.52 1.76 1.87 1.87 1.89 1.93
1.64 1.65 1.84 1.84 1.64 1.65 1.62 1.49 1.47 1.47 1.45 1.34 1.26 1.38 1.38 1.47 1.56 1.47 1.38 1.26 1.27 1.35 1.38 1.49 1.54 1.58 1.63 1.66 1.66 1.57 1.62 1.63 1.58 1.65 1.63 1.59 1.49 1.57 1.94 1.91 1.89 1.94 1.95
1.74 1.69 1.77 1.77 1.68 1.66 1.63 1.56 1.46 1.40 1.45 1.45 1.39 1.50 1.45 1.49 1.58 1.55 1.48 1.37 1.20 1.22 1.33 1.45 1.51 1.55 1.63 1.69 1.64 1.55 1.63 1.59 1.50 1.54 1.51 1.44 1.48 1.64 1.97 1.96 1.94 2.02 2.01
1.77 1.77 1.76 1.77 1.66 1.66 1.60 1.68 1.55 1.41 1.49 1.45 1.44 1.45 1.47 1.50 1.54 1.55 1.52 1.48 1.36 1.18 1.20 1.39 1.38 1.56 1.59 1.65 1.64 1.54 1.56 1.51 1.51 1.44 1.38 1.39 1.46 1.65 1.90 1.95 1.90 2.00 1.99
1.70 1.74 1.77 1.81 1.72 1.66 1.68 1.56 1.50 1.49 1.44 1.44 1.44 1.49 1.45 1.44 1.46 1.49 1.48 1.48 1.45 1.34 1.19 1.41 1.39 1.47 1.54 1.54 1.58 1.48 1.46 1.50 1.56 1.41 1.36 1.32 1.44 1.61 1.84 1.91 1.87 1.95 1.94
1.66 1.71 1.79 1.84 1.77 1.69 1.65 1.58 1.53 1.51 1.50 1.45 1.44 1.42 1.37 1.42 1.35 1.42 1.46 1.45 1.42 1.39 1.18 1.30 1.44 1.52 1.46 1.45 1.43 1.46 1.41 1.39 1.39 1.41 1.36 1.29 1.39 1.60 1.80 1.91 1.84 1.87 1.78
1.63 1.69 1.79 1.76 1.75 1.67 1.64 1.62 1.55 1.51 1.43 1.35 1.41 1.39 1.36 1.37 1.35 1.38 1.39 1.37 1.37 1.39 1.25 1.11 1.26 1.34 1.39 1.42 1.37 1.34 1.36 1.37 1.38 1.44 1.30 1.32 1.37 1.57 1.78 1.89 1.77 1.71 1.70
1.50 1.59 1.65 1.71 1.67 1.69 1.61 1.69 1.66 1.60 1.57 1.50 1.46 1.39 1.35 1.33 1.28 1.28 1.38 1.37 1.38 1.41 1.38 1.27 1.20 1.32 1.36 1.39 1.34 1.34 1.34 1.40 1.41 1.39 1.35 1.38 1.50 1.56 1.71 1.78 1.70 1.63 1.65
1.47 1.44 1.50 1.56 1.66 1.67 1.65 1.68 1.70 1.62 1.63 1.59 1.55 1.50 1.39 1.36 1.34 1.36 1.32 1.36 1.39 1.33 1.32 1.27 1.23 1.23 1.28 1.36 1.37 1.25 1.22 1.31 1.36 1.38 1.36 1.38 1.54 1.61 1.66 1.69 1.65 1.59 1.61
1.58 1.51 1.37 1.37 1.49 1.61 1.62 1.58 1.60 1.58 1.55 1.52 1.56 1.50 1.42 1.37 1.36 1.40 1.42 1.41 1.43 1.38 1.32 1.28 1.25 1.26 1.24 1.27 1.25 1.23 1.18 1.23 1.28 1.35 1.37 1.26 1.52 1.56 1.64 1.61 1.65 1.57 1.59
1.62 1.59 1.51 1.36 1.25 1.33 1.45 1.49 1.52 1.53 1.48 1.43 1.41 1.41 1.43 1.38 1.29 1.23 1.18 1.16 1.26 1.28 1.25 1.26 1.23 1.18 1.21 1.26 1.28 1.19 1.19 1.08 1.01 1.39 1.24 1.14 1.36 1.49 1.75 1.72 1.67 1.62 1.59
1.58 1.56 1.53 1.47 1.36 1.29 1.22 1.31 1.34 1.34 1.37 1.38 1.39 1.38 1.37 1.36 1.33 1.32 1.27 1.22 1.20 1.21 1.21 1.17 1.09 1.10 1.09 1.18 1.23 1.18 1.17 1.16 1.12 1.28 1.18 1.07 1.28 1.44 1.74 1.61 1.68 1.65 1.65
1.54 1.51 1.51 1.48 1.40 1.36 1.33 1.23 1.20 1.27 1.31 1.32 1.36 1.38 1.31 1.23 1.30 1.26 1.21 1.19 1.17 1.21 1.22 1.21 1.18 1.16 1.22 1.26 1.26 1.29 1.25 1.21 1.22 1.29 1.32 1.07 1.30 1.31 1.72 1.72 1.65 1.66 1.66
1.71 1.59 1.55 1.51 1.45 1.36 1.34 1.28 1.25 1.20 1.14 1.18 1.29 1.32 1.33 1.28 1.24 1.17 1.09 1.09 1.10 1.14 1.26 1.25 1.22 1.22 1.25 1.22 1.19 1.16 1.02 0.99 0.91 0.99 1.20 1.13 1.23 1.31 1.57 1.65 1.68 1.65 1.61
1.77 1.77 1.62 1.59 1.54 1.44 1.43 1.34 1.29 1.26 1.17 1.08 1.05 1.13 1.20 1.22 1.25 1.23 1.14 1.04 0.93 0.92 1.06 1.11 1.22 1.18 1.17 1.22 1.18 1.18 1.08 0.94 0.90 0.89 1.12 1.14 1.18 1.26 1.23 1.67 1.75 1.63 1.57

GFSMA_prec_pwat_075.txt.gz
Precipitable_Water
1.71 1.78 1.79 1.88 1.66 1.76 1.65 1.64 1.86 1.63 1.63 1.61 1.60 1.52 1.50 1.47 1.47 1.46 1.24 1.26 1.24 1.26 1.25 1.29 1.35 1.42 1.51 1.55 1.46 1.42 1.48 1.45 1.41 1.39 1.36 1.36 1.45 1.37 1.35 1.38 1.34 1.27 1.23
1.71 1.61 1.65 1.74 1.75 1.75 1.76 1.73 1.92 1.66 1.61 1.59 1.61 1.64 1.63 1.56 1.57 1.61 1.52 1.40 1.32 1.32 1.32 1.36 1.41 1.44 1.52 1.54 1.44 1.39 1.36 1.33 1.33 1.34 1.34 1.40 1.35 1.31 1.31 1.33 1.31 1.27 1.23
1.73 1.71 1.55 1.81 1.76 1.72 1.72 1.70 1.66 1.63 1.58 1.61 1.59 1.62 1.55 1.63 1.54 1.53 1.60 1.64 1.55 1.35 1.36 1.43 1.41 1.36 1.30 1.28 1.29 1.29 1.28 1.27 1.27 1.26 1.24 1.25 1.25 1.24 1.26 1.31 1.34 1.30 1.26
1.90 1.87 1.63 1.61 1.59 1.62 1.80 1.73 1.69 1.54 1.59 1.56 1.56 1.53 1.48 1.47 1.47 1.49 1.46 1.59 1.58 1.61 1.57 1.36 1.33 1.32 1.30 1.31 1.33 1.31 1.29 1.27 1.26 1.24 1.23 1.23 1.25 1.27 1.28 1.30 1.33 1.34 1.32
1.91 1.85 1.61 1.60 1.83 1.63 1.57 1.71 1.57 1.55 1.48 1.55 1.48 1.48 1.50 1.46 1.60 1.44 1.40 1.42 1.29 1.61 1.68 1.35 1.35 1.28 1.30 1.35 1.36 1.38 1.41 1.43 1.44 1.44 1.46 1.50 1.51 1.49 1.45 1.41 1.38 1.38 1.35
1.88 1.79 1.71 1.49 1.68 1.51 1.67 1.60 1.62 1.74 1.49 1.61 1.55 1.39 1.48 1.39 1.33 1.37 1.41 1.42 1.43 1.56 1.56 1.48 1.61 1.45 1.36 1.38 1.44 1.53 1.62 1.71 1.78 1.83 1.86 1.85 1.81 1.76 1.73 1.70 1.65 1.56 1.48
1.88 1.78 1.69 1.55 1.60 1.54 1.58 1.54 1.51 1.53 1.42 1.39 1.43 1.30 1.24 1.28 1.30 1.29 1.38 1.46 1.42 1.60 1.49 1.49 1.59 1.63 1.59 1.62 1.63 1.70 1.77 1.80 1.82 1.82 1.78 1.80 1.83 1.82 1.81 1.77 1.72 1.71 1.69
1.82 1.70 1.78 1.53 1.56 1.41 1.42 1.55 1.66 1.51 1.41 1.50 1.34 1.37 1.13 1.15 1.24 1.33 1.33 1.37 1.49 1.50 1.44 1.48 1.43 1.56 1.70 1.77 1.75 1.77 1.77 1.74 1.72 1.73 1.76 1.76 1.75 1.78 1.81 1.85 1.84 1.80 1.78
1.87 1.89 1.69 1.63 1.44 1.50 1.29 1.35 1.45 1.55 1.37 1.22 1.40 1.27 1.27 1.09 1.15 1.26 1.25 1.40 1.37 1.42 1.40 1.34 1.46 1.51 1.66 1.77 1.85 1.89 1.79 1.77 1.74 1.76 1.78 1.75 1.71 1.72 1.75 1.81 1.88 1.84 1.81
1.91 1.80 1.65 1.60 1.41 1.73 1.63 1.29 1.40 1.65 1.45 1.15 1.17 1.27 1.41 1.41 1.35 0.97 1.20 1.22 1.27 1.36 1.34 1.40 1.43 1.46 1.63 1.83 1.78 1.79 1.76 1.74 1.78 1.84 1.80 1.71 1.64 1.59 1.67 1.86 1.88 1.85 1.80
1.85 1.76 1.68 1.65 1.56 1.45 1.32 1.70 1.48 1.37 1.37 1.27 1.32 1.28 1.19 1.34 1.46 1.38 1.02 1.10 1.28 1.33 1.33 1.47 1.46 1.52 1.66 1.71 1.74 1.66 1.67 1.70 1.64 1.59 1.63 1.63 1.51 1.56 1.93 1.89 1.86 1.88 1.89
1.78 1.76 1.71 1.79 1.63 1.88 1.41 1.40 1.46 1.34 1.47 1.38 1.40 1.31 1.34 1.43 1.40 1.29 1.17 1.27 1.23 1.33 1.40 1.48 1.52 1.57 1.63 1.72 1.67 1.55 1.60 1.60 1.50 1.53 1.49 1.43 1.42 1.58 1.93 1.94 1.91 1.96 1.94
1.65 1.69 1.75 1.81 1.71 1.66 1.61 1.52 1.42 1.51 1.36 1.27 1.24 1.42 1.39 1.57 1.58 1.47 1.43 1.35 1.33 1.36 1.43 1.55 1.57 1.62 1.71 1.69 1.70 1.53 1.67 1.60 1.51 1.50 1.28 1.27 1.38 1.62 1.86 1.95 1.91 2.01 1.99
2.06 1.75 1.72 1.83 1.70 1.75 1.65 1.60 1.52 1.39 1.45 1.38 1.23 1.45 1.50 1.59 1.60 1.57 1.54 1.42 1.23 1.28 1.34 1.57 1.53 1.59 1.68 1.71 1.69 1.58 1.61 1.62 1.47 1.51 1.31 1.26 1.29 1.56 1.78 1.92 1.89 1.99 1.98
2.07 1.81 1.73 1.78 1.72 1.71 1.68 1.72 1.54 1.38 1.72 1.41 1.40 1.33 1.45 1.58 1.54 1.59 1.51 1.54 1.51 1.28 1.24 1.47 1.38 1.67 1.60 1.59 1.62 1.55 1.48 1.54 1.52 1.58 1.44 1.23 1.23 1.44 1.71 1.88 1.88 1.90 1.92
1.72 2.08 1.70 1.79 1.76 1.71 1.72 1.65 1.58 1.59 1.42 1.46 1.43 1.41 1.31 1.62 1.55 1.53 1.54 1.53 1.53 1.42 1.30 1.47 1.43 1.56 1.59 1.49 1.59 1.51 1.44 1.44 1.49 1.54 1.42 1.31 1.26 1.42 1.66 1.80 1.86 1.82 1.79
1.69 1.69 1.80 1.90 1.90 1.75 1.73 1.67 1.64 1.63 1.50 1.41 1.49 1.54 1.45 1.43 1.50 1.52 1.49 1.49 1.48 1.45 1.25 1.33 1.50 1.56 1.56 1.41 1.45 1.43 1.45 1.45 1.51 1.47 1.45 1.35 1.32 1.41 1.57 1.74 1.78 1.68 1.67
1.59 1.62 1.73 1.82 1.92 1.83 1.79 1.65 1.57 1.55 1.50 1.43 1.43 1.42 1.37 1.41 1.33 1.37 1.53 1.49 1.47 1.55 1.40 1.26 1.31 1.25 1.32 1.42 1.44 1.35 1.37 1.40 1.44 1.55 1.46 1.38 1.34 1.49 1.54 1.65 1.69 1.66 1.62
1.56 1.57 1.69 1.77 1.78 1.81 1.78 1.75 1.66 1.59 1.64 1.55 1.50 1.43 1.38 1.40 1.35 1.37 1.42 1.35 1.42 1.44 1.36 1.27 1.25 1.36 1.35 1.38 1.35 1.40 1.40 1.45 1.53 1.54 1.45 1.43 1.41 1.51 1.59 1.53 1.61 1.63 1.58
1.59 1.53 1.55 1.66 1.77 1.75 1.73 1.75 1.79 1.75 1.66 1.67 1.63 1.56 1.49 1.41 1.37 1.33 1.30 1.33 1.28 1.33 1.34 1.24 1.18 1.22 1.31 1.40 1.41 1.30 1.32 1.37 1.32 1.41 1.52 1.54 1.46 1.51 1.58 1.53 1.59 1.61 1.57
1.65 1.61 1.54 1.53 1.59 1.67 1.67 1.68 1.68 1.71 1.72 1.65 1.68 1.60 1.55 1.51 1.47 1.46 1.41 1.40 1.34 1.34 1.27 1.24 1.21 1.25 1.28 1.33 1.36 1.40 1.17 1.25 1.28 1.33 1.34 1.44 1.46 1.41 1.52 1.46 1.50 1.60 1.60
1.71 1.65 1.59 1.55 1.47 1.44 1.51 1.59 1.62 1.61 1.57 1.54 1.51 1.53 1.56 1.50 1.41 1.29 1.26 1.28 1.46 1.36 1.22 1.22 1.22 1.21 1.29 1.33 1.30 1.24 1.21 1.05 0.89 1.29 1.30 1.24 1.23 1.26 1.48 1.52 1.52 1.64 1.64
1.73 1.71 1.64 1.61 1.54 1.47 1.36 1.32 1.43 1.42 1.52 1.59 1.52 1.45 1.46 1.46 1.46 1.36 1.23 1.16 1.12 1.08 1.10 1.06 1.01 1.06 1.09 1.19 1.18 1.07 1.09 1.15 1.07 1.15 1.13 1.00 1.24 1.24 1.55 1.61 1.50 1.58 1.63
1.65 1.67 1.67 1.69 1.59 1.58 1.47 1.36 1.28 1.29 1.30 1.32 1.43 1.53 1.45 1.36 1.43 1.50 1.36 1.30 1.25 1.19 1.11 1.08 1.07 1.06 1.14 1.20 1.21 1.23 1.22 1.21 1.29 1.31 1.39 1.09 1.28 1.27 1.37 1.62 1.59 1.54 1.63
1.73 1.70 1.68 1.68 1.63 1.63 1.59 1.48 1.40 1.32 1.25 1.24 1.25 1.24 1.33 1.39 1.38 1.28 1.35 1.32 1.20 1.18 1.29 1.27 1.25 1.25 1.22 1.22 1.22 1.21 1.06 0.96 0.87 0.95 1.10 1.07 1.12 1.16 1.19 1.53 1.66 1.59 1.58
1.82 1.79 1.70 1.76 1.78 1.70 1.68 1.59 1.50 1.44 1.31 1.22 1.26 1.23 1.16 1.17 1.26 1.34 1.24 1.19 1.12 1.11 1.20 1.09 1.21 1.27 1.26 1.25 1.24 1.23 1.13 0.95 0.91 0.87 1.02 1.04 1.09 1.16 1.07 1.35 1.53 1.47 1.52